WetterOnline ( https://www.wetteronline.de )

Wetter aktuell Rødby

Aktuelles Wetter: Abed (9m)

6-stündlich | Neueste Meldungen
Ortszeit Temperatur Wetter
Do, 17.06. 20:00 26.4° C wolkenlos
Do, 17.06. 14:00 27.5° C wolkenlos
Do, 17.06. 8:00 20.1° C wolkenlos
Do, 17.06. 2:00 16.2° C leicht bewölkt
Mi, 16.06. 20:00 19.6° C wolkenlos
Mi, 16.06. 14:00 20.9° C wolkenlos
Mi, 16.06. 8:00 16.6° C wolkenlos
Mi, 16.06. 2:00 8.0° C wolkenlos
Ortszeit Temperatur Wetter
Fr, 18.06. 1:00 23.8° C wolkenlos
Fr, 18.06. 0:00 23.6° C wolkenlos
Do, 17.06. 23:00 23.1° C wolkenlos
Do, 17.06. 22:00 22.6° C wolkenlos
Do, 17.06. 21:00 24.5° C wolkenlos
Do, 17.06. 20:00 26.4° C wolkenlos
Ortszeit Relative Feuchte Sichtweite
Do, 17.06. 20:00 67% 30 km
Do, 17.06. 14:00 60% 30 km
Do, 17.06. 8:00 69% 40 km
Do, 17.06. 2:00 82% 45 km
Mi, 16.06. 20:00 60% 40 km
Mi, 16.06. 14:00 55% 35 km
Mi, 16.06. 8:00 78% 30 km
Mi, 16.06. 2:00 99% 9 km
Ortszeit Relative Feuchte Sichtweite
Fr, 18.06. 1:00 61% 35 km
Fr, 18.06. 0:00 65% 30 km
Do, 17.06. 23:00 69% 30 km
Do, 17.06. 22:00 74% 35 km
Do, 17.06. 21:00 71% 30 km
Do, 17.06. 20:00 67% 30 km
Ortszeit Niederschlagsmenge Niederschlagsart
Do, 17.06. 20:00 0.0 l/m2 in 3 Std. -
Do, 17.06. 14:00 keine Meldung -
Do, 17.06. 8:00 0.0 l/m2 in 3 Std. -
Do, 17.06. 2:00 keine Meldung -
Mi, 16.06. 20:00 0.0 l/m2 in 3 Std. -
Mi, 16.06. 14:00 0.0 l/m2 in 3 Std. -
Mi, 16.06. 8:00 0.0 l/m2 in 3 Std. -
Mi, 16.06. 2:00 keine Meldung -
Ortszeit Niederschlagsmenge Niederschlagsart
Fr, 18.06. 1:00 0.0 l/m2 in 1 Std. -
Fr, 18.06. 0:00 0.0 l/m2 in 1 Std. -
Do, 17.06. 23:00 0.0 l/m2 in 1 Std. -
Do, 17.06. 22:00 0.0 l/m2 in 1 Std. -
Do, 17.06. 21:00 0.0 l/m2 in 1 Std. -
Do, 17.06. 20:00 0.0 l/m2 in 1 Std. -
Ortszeit Stärke Spitze Richtung
km/h Bft. km/h Grad Sektor
Do, 17.06. 20:00 14 3 - 100° O
Do, 17.06. 14:00 19 3 - 130° SO
Do, 17.06. 8:00 15 3 - 120° SO
Do, 17.06. 2:00 13 3 - 120° SO
Mi, 16.06. 20:00 14 3 - 80° O
Mi, 16.06. 14:00 13 3 - 150° SO
Mi, 16.06. 8:00 6 1 - 150° SO
Mi, 16.06. 2:00 7 2 - 220° SW
Ortszeit Stärke Spitze Richtung
km/h Bft. km/h Grad Sektor
Fr, 18.06. 1:00 15 3 - 160° S
Fr, 18.06. 0:00 13 3 - 150° SO
Do, 17.06. 23:00 11 2 - 130° SO
Do, 17.06. 22:00 11 2 - 110° O
Do, 17.06. 21:00 13 3 - 100° O
Do, 17.06. 20:00 14 3 - 100° O
Ortszeit Untergrenze Bedeckung Gattung
total tief tief mittel hoch
Do, 17.06. 20:00 - 0/8 0/8 - - -
Do, 17.06. 14:00 - 0/8 0/8 - - -
Do, 17.06. 8:00 - 0/8 0/8 - - -
Do, 17.06. 2:00 2100 m 3/8 3/8 - - -
Mi, 16.06. 20:00 - 0/8 0/8 - - -
Mi, 16.06. 14:00 - 0/8 0/8 - - -
Mi, 16.06. 8:00 - 0/8 0/8 - - -
Mi, 16.06. 2:00 - 0/8 0/8 - - -
Ortszeit Bedeckungsgrad in Achtel und Wolkenuntergrenze
Fr, 18.06. 1:00 keine Wolken
Fr, 18.06. 0:00 keine Wolken
Do, 17.06. 23:00 keine Wolken
Do, 17.06. 22:00 keine Wolken
Do, 17.06. 21:00 keine Wolken
Do, 17.06. 20:00 keine Wolken
Ortszeit Luftdruck NN (hPa) Tendenz (hPa in 3 Std.)
Do, 17.06. 20:00 1013 - 0,8
Do, 17.06. 14:00 1015 - 0,7
Do, 17.06. 8:00 1015 - 0,4
Do, 17.06. 2:00 1016 - 0,1
Mi, 16.06. 20:00 1017 - 0,8
Mi, 16.06. 14:00 1019 - 0,8
Mi, 16.06. 8:00 1020 0,0
Mi, 16.06. 2:00 1020 - 0,4
Ortszeit Luftdruck NN (hPa) Tendenz (hPa in 3 Std.)
Fr, 18.06. 1:00 1014 + 0,5
Fr, 18.06. 0:00 1014 + 0,9
Do, 17.06. 23:00 1013 + 0,5
Do, 17.06. 22:00 1013 - 0,1
Do, 17.06. 21:00 1013 - 0,6
Do, 17.06. 20:00 1013 - 0,8
Ortszeit Schneehöhe (cm)
Do, 17.06. 20:00 -
Do, 17.06. 14:00 -
Do, 17.06. 8:00 -
Do, 17.06. 2:00 -
Mi, 16.06. 20:00 -
Mi, 16.06. 14:00 -
Mi, 16.06. 8:00 -
Mi, 16.06. 2:00 -
Ortszeit Schneehöhe (cm)
Fr, 18.06. 1:00 -
Fr, 18.06. 0:00 -
Do, 17.06. 23:00 -
Do, 17.06. 22:00 -
Do, 17.06. 21:00 -
Do, 17.06. 20:00 -
Link zu dieser Seite / Seite empfehlen

Das Wetter in ...